DRAGON CRS-16 (43827 NORAD) Tracking and Keplerian Element Data

This shows tracking and keplerian element data for the satellite.

Feedback or suggestion? Click here.




ElementValue
Catalog43827
NameDRAGON CRS-16
Epoch Orbit15123
Epoch Day13.58677685
Epoch Year2019
RAAN50.2106
Inclination51.6425
Eccentricity0.0002416
Argument of Perigee284.1251
Mean Anonmoly212.8292
Mean Motion15.53757701
Decay Rate2.99E-06
L11 43827U 18101A 19013.58677685 .00000299 00000-0 11878-4 0 9990
L22 43827 51.6425 50.2106 0002416 284.1251 212.8292 15.53757701151238



Live tracking and technical data element details for DRAGON CRS-16 (NORAD 43827). DRAGON CRS-16 can be tracked NOW for your location showing map with azimuth and elevation plus other details from your city location.







IsCatalogInMostPopularTable: catalog: 43827, numindb: 357
Update: records affected: 1



GetName: 43827 DRAGON CRS-16

Hit Count: updated at: Fri, 16 May 2025 10:10:00 GMT